Location: Klein M�hlingen
(51.9472°N, 11.7453°E)
Time: 23:05:22
(UTC+00:00)

STARLINK-1245 - Pass Details

Date: 09 April 2020
Orbit: 548 x 551 km, 53.0° (Epoch: 27 May)

Event Time Altitude Azimuth Distance (km) Brightness Sun altitude
Rises 18:16:28 0° 288° (WNW) 2,727 10.8 -3.1°
Reaches altitude 10° 18:18:44 10° 284° (WNW) 1,831 8.3 -3.4°
Maximum altitude 18:22:47 53° 207° (SSW) 679 4.2 -4.0°
Drops below altitude 10° 18:26:50 10° 130° (SE) 1,824 5.7 -4.6°
Enters shadow 18:27:58 - 128° (SE) 2,269 6.1 -4.8°
